Madison, MN

1:42 AM CDT on October 23, 2019 (GMT -0500)
Madison-Lac Qui Parle County

Weather History for KDXX - September, 2019

Change the Weather History Date:

Saturday, September 21, 2019

  Actual Average (KAQP) Record (KAQP)
Temperature  
Mean Temperature 72 °F -  
Max Temperature 84 °F 67 °F 89 °F (2015)
Min Temperature 60 °F 43 °F 32 °F (2002)
Cooling Degree Days 7    
Growing Degree Days 22 (Base 50)    
Moisture  
Dew Point 65 °F    
Average Humidity 72    
Maximum Humidity 100    
Minimum Humidity 47    
Precipitation  
Precipitation 0.00 in - - ()
Sea Level Pressure  
Sea Level Pressure 29.74 in    
Wind  
Wind Speed 11 mph (SW)    
Max Wind Speed 17 mph    
Max Gust Speed 23 mph    
Visibility 10 miles    
Events Rain , Thunderstorm    
Averages and records for this station are not official NWS values.
T = Trace of Precipitation, MM = Missing Value Source: NWS Daily Summary

Daily Weather History Graph

Daily Weather History Graph

Search for Another Location

Airport or City:

Astronomy

Sep. 21, 2019 Rise Set
Actual Time 7:10 AM CDT 7:24 PM CDT
Civil Twilight 6:41 AM CDT 7:53 PM CDT
Nautical Twilight 6:06 AM CDT 8:28 PM CDT
Astronomical Twilight 5:31 AM CDT 9:03 PM CDT
Moon 11:45 PM CDT (9/21) 2:34 PM CDT (9/21)
Length of Visible Light 13h 12m
Length of Day
12h 14m
Waning Gibbous, 54% of the Moon is Illuminated
Sep 21
Waning Gibbous
Sep 21
Last Quarter
Sep 28
New
Oct 5
First Quarter
Oct 13
Full

Hourly Weather History & Observations

Time (CDT) Temp. Heat Index Dew Point Humidity Pressure Visibility Wind Dir Wind Speed Gust Speed Precip Events Conditions
12:19 AM 75.2 °F - 68.0 °F 78% 29.79 in 10.0 mi SSE 12.7 mph - N/A   Clear
12:36 AM 75.2 °F - 68.0 °F 78% 29.80 in 10.0 mi South 10.4 mph 16.1 mph N/A   Clear
12:55 AM 75.2 °F - 68.0 °F 78% 29.79 in 10.0 mi South 9.2 mph - N/A   Mostly Cloudy
12:56 AM 75.2 °F - 68.0 °F 78% 29.79 in 10.0 mi South 9.2 mph - N/A   Mostly Cloudy
1:15 AM 75.2 °F - 68.0 °F 78% 29.79 in 10.0 mi South 10.4 mph - N/A   Overcast
1:38 AM 75.2 °F - 66.2 °F 73% 29.79 in 10.0 mi South 10.4 mph - N/A   Mostly Cloudy
1:57 AM 75.2 °F - 66.2 °F 73% 29.79 in 10.0 mi South 10.4 mph - N/A   Scattered Clouds
2:16 AM 75.2 °F - 66.2 °F 73% 29.78 in 10.0 mi South 11.5 mph 17.3 mph N/A   Clear
2:35 AM 75.2 °F - 66.2 °F 73% 29.77 in 10.0 mi South 12.7 mph - N/A   Scattered Clouds
2:36 AM 75.2 °F - 66.2 °F 73% 29.77 in 10.0 mi South 12.7 mph - N/A   Scattered Clouds
2:55 AM 75.2 °F - 66.2 °F 73% 29.76 in 10.0 mi South 11.5 mph 18.4 mph N/A   Mostly Cloudy
3:16 AM 75.2 °F - 66.2 °F 73% 29.74 in 10.0 mi South 10.4 mph - N/A   Scattered Clouds
3:35 AM 73.4 °F - 66.2 °F 78% 29.75 in 10.0 mi South 8.1 mph - N/A   Scattered Clouds
3:36 AM 73.4 °F - 66.2 °F 78% 29.75 in 10.0 mi South 8.1 mph - N/A   Scattered Clouds
3:55 AM 73.4 °F - 66.2 °F 78% 29.73 in 10.0 mi South 6.9 mph - N/A   Mostly Cloudy
3:56 AM 73.4 °F - 66.2 °F 78% 29.73 in 10.0 mi South 8.1 mph - N/A   Mostly Cloudy
4:15 AM 73.4 °F - 68.0 °F 83% 29.73 in 10.0 mi South 6.9 mph - N/A   Mostly Cloudy
4:19 AM 73.4 °F - 68.0 °F 83% 29.72 in 10.0 mi SSE 8.1 mph - N/A   Mostly Cloudy
4:38 AM 73.4 °F - 68.0 °F 83% 29.71 in 10.0 mi South 9.2 mph - N/A   Mostly Cloudy
4:55 AM 73.4 °F - 68.0 °F 83% 29.71 in 10.0 mi South 8.1 mph - N/A   Scattered Clouds
5:15 AM 71.6 °F - 68.0 °F 88% 29.70 in 10.0 mi South 8.1 mph - N/A   Scattered Clouds
5:16 AM 71.6 °F - 68.0 °F 88% 29.71 in 10.0 mi South 9.2 mph - N/A   Scattered Clouds
5:35 AM 73.4 °F - 68.0 °F 83% 29.71 in 10.0 mi South 8.1 mph - N/A   Mostly Cloudy
5:59 AM 73.4 °F - 68.0 °F 83% 29.71 in 10.0 mi South 8.1 mph - N/A   Overcast
6:17 AM 73.4 °F - 68.0 °F 83% 29.72 in 10.0 mi South 4.6 mph - N/A Thunderstorm Overcast
6:36 AM 73.4 °F - 69.8 °F 88% 29.72 in 10.0 mi South 5.8 mph - N/A Thunderstorm Overcast
6:55 AM 71.6 °F - 69.8 °F 94% 29.71 in 7.0 mi SSE 11.5 mph - N/A Rain , Thunderstorm Thunderstorms and Rain
6:56 AM 71.6 °F - 69.8 °F 94% 29.70 in 7.0 mi SSE 11.5 mph - N/A Rain , Thunderstorm Thunderstorms and Rain
7:15 AM 71.6 °F - 71.6 °F 100% 29.67 in 10.0 mi SSE 16.1 mph 23.0 mph N/A Rain Light Rain
7:38 AM 71.6 °F - 71.6 °F 100% 29.68 in 10.0 mi SSE 9.2 mph - N/A   Clear
7:55 AM 71.6 °F - 71.6 °F 100% 29.67 in 10.0 mi SE 3.5 mph - N/A   Mostly Cloudy
8:15 AM 71.6 °F - 69.8 °F 94% 29.67 in 10.0 mi SSE 5.8 mph - N/A   Scattered Clouds
8:35 AM 71.6 °F - 68.0 °F 88% 29.68 in 10.0 mi SSE 10.4 mph 16.1 mph N/A   Clear
8:36 AM 71.6 °F - 68.0 °F 88% 29.68 in 10.0 mi South 10.4 mph 16.1 mph N/A   Clear
8:59 AM 71.6 °F - 68.0 °F 88% 29.69 in 10.0 mi SSW 6.9 mph - N/A   Clear
9:16 AM 71.6 °F - 68.0 °F 88% 29.68 in 10.0 mi SSW 5.8 mph - N/A   Clear
9:36 AM 73.4 °F - 71.6 °F 94% 29.68 in 10.0 mi SW 5.8 mph - N/A   Clear
9:55 AM 77.0 °F - 71.6 °F 83% 29.67 in 10.0 mi SW 10.4 mph 17.3 mph N/A   Clear
10:15 AM 78.8 °F - 71.6 °F 78% 29.67 in 10.0 mi SW 16.1 mph - N/A   Clear
10:19 AM 78.8 °F - 71.6 °F 78% 29.67 in 10.0 mi SW 16.1 mph - N/A   Scattered Clouds
10:37 AM 80.6 °F 84.6 °F 71.6 °F 74% 29.67 in 10.0 mi SW 17.3 mph 23.0 mph N/A   Clear
10:56 AM 80.6 °F 84.6 °F 71.6 °F 74% 29.67 in 10.0 mi SW 16.1 mph 23.0 mph N/A   Scattered Clouds
11:15 AM 80.6 °F 84.6 °F 71.6 °F 74% 29.67 in 10.0 mi SW 15.0 mph 23.0 mph N/A   Scattered Clouds
11:16 AM 80.6 °F 84.6 °F 71.6 °F 74% 29.67 in 10.0 mi SW 16.1 mph 23.0 mph N/A   Scattered Clouds
11:35 AM 82.4 °F 86.3 °F 69.8 °F 66% 29.67 in 10.0 mi SW 17.3 mph 21.9 mph N/A   Scattered Clouds
11:36 AM 82.4 °F 86.3 °F 69.8 °F 66% 29.67 in 10.0 mi SW 17.3 mph 21.9 mph N/A   Scattered Clouds
11:58 AM 82.4 °F 87.2 °F 71.6 °F 70% 29.67 in 10.0 mi SW 16.1 mph 21.9 mph N/A   Scattered Clouds
12:16 PM 82.4 °F 86.3 °F 69.8 °F 66% 29.67 in 10.0 mi SW 12.7 mph 23.0 mph N/A   Scattered Clouds
12:35 PM 82.4 °F 86.3 °F 69.8 °F 66% 29.68 in 10.0 mi WSW 15.0 mph 20.7 mph N/A   Scattered Clouds
12:55 PM 84.2 °F 88.4 °F 69.8 °F 62% 29.68 in 10.0 mi SW 15.0 mph - N/A   Clear
12:56 PM 84.2 °F 88.4 °F 69.8 °F 62% 29.68 in 10.0 mi SW 13.8 mph 17.3 mph N/A   Scattered Clouds
1:15 PM 84.2 °F 87.3 °F 68.0 °F 58% 29.68 in 10.0 mi WSW 11.5 mph 19.6 mph N/A   Scattered Clouds
1:19 PM 84.2 °F 86.6 °F 66.2 °F 55% 29.68 in 10.0 mi WSW 12.7 mph 18.4 mph N/A   Scattered Clouds
1:38 PM 84.2 °F 86.6 °F 66.2 °F 55% 29.68 in 10.0 mi SW 11.5 mph 18.4 mph N/A   Clear
1:56 PM 84.2 °F 85.6 °F 64.4 °F 51% 29.69 in 10.0 mi West 15.0 mph 21.9 mph N/A   Clear
2:15 PM 84.2 °F 85.6 °F 64.4 °F 51% 29.69 in 10.0 mi West 16.1 mph 20.7 mph N/A   Clear
2:16 PM 84.2 °F 85.6 °F 64.4 °F 51% 29.69 in 10.0 mi West 16.1 mph 21.9 mph N/A   Clear
2:35 PM 84.2 °F 86.6 °F 66.2 °F 55% 29.69 in 10.0 mi WSW 12.7 mph 18.4 mph N/A   Scattered Clouds
2:58 PM 82.4 °F 83.9 °F 64.4 °F 54% 29.70 in 10.0 mi WSW 15.0 mph - N/A   Clear
3:17 PM 82.4 °F 83.4 °F 62.6 °F 51% 29.70 in 10.0 mi West 16.1 mph 23.0 mph N/A   Clear
3:36 PM 82.4 °F 83.4 °F 62.6 °F 51% 29.71 in 10.0 mi WSW 13.8 mph 18.4 mph N/A   Clear
3:55 PM 82.4 °F 83.4 °F 62.6 °F 51% 29.72 in 10.0 mi West 15.0 mph 23.0 mph N/A   Clear
4:15 PM 82.4 °F 83.4 °F 62.6 °F 51% 29.72 in 10.0 mi West 16.1 mph 19.6 mph N/A   Clear
4:37 PM 80.6 °F 81.8 °F 62.6 °F 54% 29.72 in 10.0 mi West 15.0 mph 21.9 mph N/A   Clear
4:55 PM 80.6 °F 81.8 °F 62.6 °F 54% 29.72 in 10.0 mi West 16.1 mph 23.0 mph N/A   Clear
5:15 PM 80.6 °F 81.8 °F 62.6 °F 54% 29.73 in 10.0 mi West 12.7 mph 17.3 mph N/A   Clear
5:16 PM 80.6 °F 81.8 °F 62.6 °F 54% 29.73 in 10.0 mi West 12.7 mph 17.3 mph N/A   Clear
5:35 PM 80.6 °F 81.8 °F 62.6 °F 54% 29.73 in 10.0 mi West 11.5 mph - N/A   Clear
5:36 PM 80.6 °F 81.8 °F 62.6 °F 54% 29.73 in 10.0 mi West 12.7 mph 18.4 mph N/A   Clear
5:59 PM 80.6 °F 81.5 °F 60.8 °F 51% 29.74 in 10.0 mi WSW 9.2 mph - N/A   Clear
6:16 PM 78.8 °F - 57.2 °F 47% 29.75 in 10.0 mi WSW 8.1 mph - N/A   Clear
6:36 PM 78.8 °F - 57.2 °F 47% 29.76 in 10.0 mi West 10.4 mph 16.1 mph N/A   Clear
6:55 PM 75.2 °F - 59.0 °F 57% 29.77 in 10.0 mi West 15.0 mph - N/A   Clear
7:15 PM 73.4 °F - 60.8 °F 65% 29.79 in 10.0 mi West 13.8 mph 19.6 mph N/A   Clear
7:19 PM 73.4 °F - 60.8 °F 65% 29.79 in 10.0 mi West 11.5 mph - N/A   Clear
7:37 PM 71.6 °F - 59.0 °F 64% 29.80 in 10.0 mi West 10.4 mph - N/A   Clear
7:55 PM 69.8 °F - 59.0 °F 68% 29.81 in 10.0 mi West 9.2 mph - N/A   Clear
8:15 PM 69.8 °F - 57.2 °F 64% 29.82 in 10.0 mi West 10.4 mph - N/A   Clear
8:16 PM 69.8 °F - 57.2 °F 64% 29.82 in 10.0 mi West 9.2 mph - N/A   Clear
8:35 PM 66.2 °F - 59.0 °F 78% 29.83 in 10.0 mi West 5.8 mph - N/A   Clear
8:36 PM 66.2 °F - 59.0 °F 78% 29.83 in 10.0 mi West 5.8 mph - N/A   Clear
8:59 PM 64.4 °F - 57.2 °F 77% 29.83 in 10.0 mi West 8.1 mph - N/A   Clear
9:16 PM 66.2 °F - 57.2 °F 73% 29.83 in 10.0 mi West 8.1 mph - N/A   Clear
9:35 PM 66.2 °F - 57.2 °F 73% 29.83 in 10.0 mi WSW 6.9 mph - N/A   Clear
9:36 PM 66.2 °F - 57.2 °F 73% 29.83 in 10.0 mi WSW 6.9 mph - N/A   Clear
9:55 PM 64.4 °F - 55.4 °F 73% 29.83 in 10.0 mi West 6.9 mph - N/A   Clear
9:56 PM 64.4 °F - 55.4 °F 73% 29.83 in 10.0 mi West 8.1 mph - N/A   Clear
10:15 PM 64.4 °F - 57.2 °F 77% 29.83 in 10.0 mi West 6.9 mph - N/A   Clear
10:20 PM 62.6 °F - 57.2 °F 82% 29.83 in 10.0 mi West 4.6 mph - N/A   Clear
10:37 PM 62.6 °F - 57.2 °F 82% 29.84 in 10.0 mi West 3.5 mph - N/A   Clear
10:55 PM 60.8 °F - 55.4 °F 82% 29.84 in 10.0 mi West 4.6 mph - N/A   Clear
11:15 PM 60.8 °F - 55.4 °F 82% 29.85 in 10.0 mi West 5.8 mph - N/A   Clear
11:16 PM 60.8 °F - 55.4 °F 82% 29.85 in 10.0 mi West 5.8 mph - N/A   Clear
11:35 PM 62.6 °F - 55.4 °F 77% 29.85 in 10.0 mi West 4.6 mph - N/A   Clear
11:36 PM 62.6 °F - 55.4 °F 77% 29.85 in 10.0 mi West 4.6 mph - N/A   Clear
11:59 PM 62.6 °F - 55.4 °F 77% 29.86 in 10.0 mi SW 3.5 mph - N/A   Clear